Regional Weather Roundup
Issued by NWS

Home | Current Version | Previous Version | Text Only | Print | Product List | Glossary Off
Versions: 1 2 3 4 5 6 7 8 9 10 11 12 13 14 15 16 17 18 19 20 21 22 23 24 25 26 27

000
ASUS45 KCYS 230410
RWRWY

WYOMING REGIONAL WEATHER ROUNDUP
NATIONAL WEATHER SERVICE CHEYENNE WY
900 PM MST WED NOV 22 2017

NOTE:  "FAIR" INDICATES FEW OR NO CLOUDS BELOW 12,000 FEET
WITH NO SIGNIFICANT WEATHER AND/OR OBSTRUCTIONS TO VISIBILITY.

WYZ001-230500-
YELLOWSTONE NATIONAL PARK

CITY           SKY/WX    TMP DP  RH WIND       PRES   REMARKS
LK YELLOWSTONE   N/A     39  37  92 CALM      30.42F
W YELLOWSTONE  NOT AVBL

$$
WYZ002>013-054>058-071-098>099-230500-
NORTHERN WYOMING

CITY           SKY/WX    TMP DP  RH WIND       PRES   REMARKS
JACKSON        CLOUDY    42  38  85 S6        30.38F
CODY           FAIR      57  38  48 W18G31    30.22S
GREYBULL       FAIR      38  34  85 S5        30.21S WCI  34
WORLAND        FAIR      34  32  92 S8        30.23R WCI  27
SHERIDAN       FAIR      43  35  73 S6        30.11S
BUFFALO        MOCLDY    54  32  43 SW6       30.17S
GILLETTE       FAIR      45  36  70 W8        30.14R
HULETT         FAIR      50  37  62 S8        30.14R
NEWCASTLE      FAIR      41  32  70 CALM      30.15S

$$
WYZ014>020-022>026-101>103-230500-
CENTRAL WYOMING

CITY           SKY/WX    TMP DP  RH WIND       PRES   REMARKS
BIG PINEY      FAIR      30  29  96 W5        30.42F WCI  25
PINEDALE       FOG       30  30 100 CALM      30.43S VSB 1/2
DUBOIS         FAIR      43  34  70 NW15      30.36R
LANDER         FAIR      47  35  63 SW7       30.26F
RIVERTON       FAIR      48  37  65 W8        30.27R
CASPER         FAIR      44  37  76 SW6       30.25S
DOUGLAS        FAIR      45  39  79 NW10      30.22R

$$
WYZ021-027>030-104>119-230500-
SOUTHERN WYOMING

CITY           SKY/WX    TMP DP  RH WIND       PRES   REMARKS
EVANSTON       FAIR      45  38  76 SW6       30.46R
KEMMERER       FAIR      41  36  81 SW7       30.45S
FORT BRIDGER   FAIR      49  38  66 SW14G20   30.47R
ROCK SPRINGS   FAIR      47  37  68 W24       30.40F
DIXON          MOCLDY    39  35  86 CALM      30.45S
RAWLINS        FAIR      46  39  76 W24G31    30.36R
SARATOGA       FAIR      43  36  75 SW5       30.40S
LARAMIE        FAIR      39  35  86 W7        30.36R WCI  34
CHEYENNE       FAIR      49  38  65 NW12      30.28R
TORRINGTON     FAIR      49  40  71 SW3       30.18R
PINE BLUFFS    FAIR      52  37  58 NW24G32   30.22S

$$




USA.gov is the U.S. government's official web portal to all federal, state and local government web resources and services.